| time (UTC) | temp C | wind direction | speed KPH | gust KPH | rain 1hr cm | rain 24hr cm | rain mn cm | humidity % | barometer mb |
| 20260508111557 | 3 | 0 | 0.0 | 3.2 | 0.00 | 0.00 | 0.00 | 88 | 1017.0 |
| 20260508111100 | 2 | 0 | 0.0 | 3.2 | 0.00 | 0.00 | 0.00 | 88 | 1016.8 |
| 20260508110557 | 2 | 0 | 0.0 | 0.0 | 0.00 | 0.00 | 0.00 | 87 | 1016.8 |
| 20260508110058 | 2 | 0 | 0.0 | 0.0 | 0.00 | 0.00 | 0.00 | 87 | 1016.8 |
| 20260508105600 | 2 | 0 | 0.0 | 0.0 | 0.00 | 0.00 | 0.00 | 87 | 1016.7 |
| 20260508105057 | 2 | 0 | 0.0 | 0.0 | 0.00 | 0.00 | 0.00 | 87 | 1016.6 |
| 20260508104620 | 2 | 0 | 0.0 | 0.0 | 0.00 | 0.00 | 0.00 | 87 | 1016.6 |
| 20260508104101 | 2 | 0 | 0.0 | 0.0 | 0.00 | 0.00 | 0.00 | 87 | 1016.7 |
| 20260508103559 | 2 | 0 | 0.0 | 0.0 | 0.00 | 0.00 | 0.00 | 87 | 1016.6 |
| 20260508103054 | 2 | 0 | 0.0 | 0.0 | 0.00 | 0.00 | 0.00 | 87 | 1016.7 |
| 20260508102556 | 2 | 0 | 0.0 | 0.0 | 0.00 | 0.00 | 0.00 | 87 | 1016.6 |
| 20260508102058 | 2 | 0 | 0.0 | 0.0 | 0.00 | 0.00 | 0.00 | 87 | 1016.3 |
| 20260508101559 | 2 | 0 | 0.0 | 1.6 | 0.00 | 0.00 | 0.00 | 87 | 1016.4 |
| 20260508101058 | 2 | 0 | 0.0 | 1.6 | 0.00 | 0.00 | 0.00 | 87 | 1016.5 |
| 20260508100557 | 2 | 0 | 0.0 | 0.0 | 0.00 | 0.00 | 0.00 | 87 | 1016.4 |
| 20260508100057 | 2 | 0 | 0.0 | 0.0 | 0.00 | 0.00 | 0.00 | 87 | 1016.4 |
| 20260508095558 | 2 | 0 | 0.0 | 0.0 | 0.00 | 0.00 | 0.00 | 87 | 1016.4 |
| 20260508095057 | 2 | 0 | 0.0 | 0.0 | 0.00 | 0.00 | 0.00 | 87 | 1016.3 |
| 20260508094558 | 2 | 0 | 0.0 | 0.0 | 0.00 | 0.00 | 0.00 | 87 | 1016.3 |
| 20260508094101 | 2 | 0 | 0.0 | 0.0 | 0.00 | 0.00 | 0.00 | 87 | 1016.2 |
| 20260508093600 | 2 | 0 | 0.0 | 1.6 | 0.00 | 0.00 | 0.00 | 87 | 1016.2 |
| 20260508093101 | 2 | 0 | 0.0 | 1.6 | 0.00 | 0.00 | 0.00 | 87 | 1016.1 |
| 20260508092556 | 2 | 0 | 0.0 | 1.6 | 0.00 | 0.00 | 0.00 | 87 | 1016.2 |
| 20260508092101 | 2 | 0 | 0.0 | 3.2 | 0.00 | 0.00 | 0.00 | 87 | 1016.1 |
| 20260508091620 | 2 | 0 | 0.0 | 3.2 | 0.00 | 0.00 | 0.00 | 87 | 1016.1 |
| 20260508091059 | 3 | 146 | 1.6 | 3.2 | 0.00 | 0.00 | 0.00 | 87 | 1016.2 |
| 20260508090601 | 3 | 137 | 0.0 | 3.2 | 0.00 | 0.00 | 0.00 | 87 | 1015.8 |
| 20260508090108 | 3 | 0 | 0.0 | 3.2 | 0.00 | 0.00 | 0.00 | 87 | 1015.9 |
| 20260508085557 | 3 | 325 | 0.0 | 3.2 | 0.00 | 0.00 | 0.00 | 87 | 1015.8 |
| 20260508085057 | 3 | 0 | 0.0 | 3.2 | 0.00 | 0.00 | 0.00 | 87 | 1015.9 |
| 20260508084556 | 3 | 0 | 0.0 | 1.6 | 0.00 | 0.00 | 0.00 | 87 | 1015.8 |
| 20260508084058 | 3 | 325 | 0.0 | 3.2 | 0.00 | 0.00 | 0.00 | 87 | 1015.9 |
| 20260508083558 | 3 | 0 | 0.0 | 3.2 | 0.00 | 0.00 | 0.00 | 87 | 1015.9 |
| 20260508083110 | 3 | 325 | 0.0 | 3.2 | 0.00 | 0.00 | 0.00 | 87 | 1015.8 |
| 20260508082557 | 3 | 325 | 0.0 | 3.2 | 0.00 | 0.00 | 0.00 | 87 | 1015.9 |
| 20260508082057 | 3 | 0 | 0.0 | 3.2 | 0.00 | 0.00 | 0.00 | 87 | 1015.9 |
| 20260508081600 | 3 | 325 | 0.0 | 3.2 | 0.00 | 0.00 | 0.00 | 87 | 1015.9 |
| 20260508081100 | 3 | 0 | 0.0 | 1.6 | 0.00 | 0.00 | 0.00 | 87 | 1015.9 |
| 20260508080558 | 3 | 0 | 0.0 | 1.6 | 0.00 | 0.00 | 0.00 | 86 | 1015.9 |
| 20260508080109 | 3 | 0 | 0.0 | 3.2 | 0.00 | 0.00 | 0.00 | 86 | 1016.0 |
| 20260508075558 | 3 | 0 | 0.0 | 3.2 | 0.00 | 0.00 | 0.00 | 86 | 1015.9 |
| 20260508075056 | 3 | 0 | 0.0 | 3.2 | 0.00 | 0.00 | 0.00 | 86 | 1015.8 |
| 20260508074555 | 3 | 0 | 0.0 | 1.6 | 0.00 | 0.00 | 0.00 | 86 | 1015.8 |
| 20260508074056 | 3 | 0 | 0.0 | 0.0 | 0.00 | 0.00 | 0.00 | 86 | 1015.9 |
| 20260508073558 | 3 | 0 | 0.0 | 0.0 | 0.00 | 0.00 | 0.00 | 86 | 1015.9 |
| 20260508073103 | 3 | 0 | 0.0 | 0.0 | 0.00 | 0.00 | 0.00 | 86 | 1015.9 |
| 20260508072558 | 3 | 0 | 0.0 | 0.0 | 0.00 | 0.00 | 0.00 | 86 | 1015.8 |
| 20260508072057 | 3 | 0 | 0.0 | 0.0 | 0.00 | 0.00 | 0.00 | 85 | 1015.8 |
| 20260508071603 | 3 | 0 | 0.0 | 0.0 | 0.00 | 0.00 | 0.00 | 85 | 1015.8 |
| 20260508071057 | 3 | 0 | 0.0 | 0.0 | 0.00 | 0.00 | 0.00 | 85 | 1015.9 |
| 20260508070558 | 3 | 0 | 0.0 | 1.6 | 0.00 | 0.00 | 0.00 | 85 | 1015.8 |
| 20260508070140 | 3 | 0 | 0.0 | 1.6 | 0.00 | 0.00 | 0.00 | 85 | 1015.9 |
| 20260508065557 | 3 | 0 | 0.0 | 1.6 | 0.00 | 0.00 | 0.00 | 85 | 1015.8 |
| 20260508065057 | 3 | 0 | 0.0 | 1.6 | 0.00 | 0.00 | 0.00 | 85 | 1016.1 |
| 20260508064607 | 3 | 0 | 0.0 | 0.0 | 0.00 | 0.00 | 0.00 | 85 | 1016.1 |
| 20260508064059 | 3 | 0 | 0.0 | 0.0 | 0.00 | 0.00 | 0.00 | 85 | 1016.1 |
| 20260508063557 | 3 | 0 | 0.0 | 0.0 | 0.00 | 0.00 | 0.00 | 85 | 1016.1 |
| 20260508063057 | 3 | 0 | 0.0 | 0.0 | 0.00 | 0.00 | 0.00 | 85 | 1016.1 |
| 20260508062556 | 3 | 0 | 0.0 | 0.0 | 0.00 | 0.00 | 0.00 | 85 | 1016.2 |
| 20260508062056 | 3 | 0 | 0.0 | 0.0 | 0.00 | 0.00 | 0.00 | 85 | 1016.3 |
| 20260508061603 | 3 | 0 | 0.0 | 0.0 | 0.00 | 0.00 | 0.00 | 84 | 1016.3 |
| 20260508061100 | 3 | 0 | 0.0 | 1.6 | 0.00 | 0.00 | 0.00 | 84 | 1016.3 |
| 20260508060556 | 3 | 0 | 0.0 | 1.6 | 0.00 | 0.00 | 0.00 | 84 | 1016.4 |
| 20260508060057 | 3 | 0 | 0.0 | 1.6 | 0.00 | 0.00 | 0.00 | 84 | 1016.2 |
| 20260508055556 | 3 | 0 | 0.0 | 0.0 | 0.00 | 0.00 | 0.00 | 83 | 1016.4 |
| 20260508055056 | 4 | 0 | 0.0 | 0.0 | 0.00 | 0.00 | 0.00 | 83 | 1016.2 |
| 20260508054557 | 4 | 0 | 0.0 | 0.0 | 0.00 | 0.00 | 0.00 | 82 | 1016.2 |
| 20260508054057 | 4 | 0 | 0.0 | 0.0 | 0.00 | 0.00 | 0.00 | 82 | 1016.0 |
| 20260508053557 | 4 | 0 | 0.0 | 0.0 | 0.00 | 0.00 | 0.00 | 83 | 1016.0 |
| 20260508053106 | 4 | 0 | 0.0 | 0.0 | 0.00 | 0.00 | 0.00 | 82 | 1016.2 |
| 20260508052557 | 4 | 0 | 0.0 | 0.0 | 0.00 | 0.00 | 0.00 | 82 | 1016.2 |
| 20260508052056 | 4 | 0 | 0.0 | 0.0 | 0.00 | 0.00 | 0.00 | 82 | 1016.3 |
| 20260508051557 | 4 | 0 | 0.0 | 0.0 | 0.00 | 0.00 | 0.00 | 82 | 1016.4 |
| 20260508051059 | 5 | 0 | 0.0 | 0.0 | 0.00 | 0.00 | 0.00 | 82 | 1016.4 |
| 20260508050557 | 5 | 0 | 0.0 | 0.0 | 0.00 | 0.00 | 0.00 | 82 | 1016.5 |
| 20260508045556 | 5 | 0 | 0.0 | 1.6 | 0.00 | 0.00 | 0.00 | 81 | 1016.4 |
| 20260508045056 | 5 | 0 | 0.0 | 1.6 | 0.00 | 0.00 | 0.00 | 81 | 1016.4 |
| 20260508044557 | 5 | 0 | 0.0 | 1.6 | 0.00 | 0.00 | 0.00 | 81 | 1016.3 |
| 20260508044058 | 5 | 0 | 0.0 | 0.0 | 0.00 | 0.00 | 0.00 | 80 | 1016.4 |
| 20260508043556 | 5 | 0 | 0.0 | 0.0 | 0.00 | 0.00 | 0.00 | 80 | 1016.4 |
| 20260508043104 | 5 | 0 | 0.0 | 0.0 | 0.00 | 0.00 | 0.00 | 80 | 1016.3 |
| 20260508042557 | 5 | 0 | 0.0 | 0.0 | 0.00 | 0.00 | 0.00 | 80 | 1016.3 |
| 20260508042056 | 5 | 0 | 0.0 | 0.0 | 0.00 | 0.00 | 0.00 | 80 | 1016.3 |
| 20260508041558 | 6 | 0 | 0.0 | 0.0 | 0.00 | 0.00 | 0.00 | 80 | 1016.4 |
| 20260508041059 | 6 | 0 | 0.0 | 0.0 | 0.00 | 0.00 | 0.00 | 79 | 1016.4 |
| 20260508040558 | 6 | 0 | 0.0 | 0.0 | 0.00 | 0.00 | 0.00 | 79 | 1016.3 |
| 20260508040057 | 6 | 0 | 0.0 | 0.0 | 0.00 | 0.00 | 0.00 | 79 | 1016.2 |
| 20260508035600 | 6 | 0 | 0.0 | 0.0 | 0.00 | 0.00 | 0.00 | 78 | 1016.1 |
| 20260508035057 | 6 | 0 | 0.0 | 0.0 | 0.00 | 0.00 | 0.00 | 78 | 1016.1 |
| 20260508034559 | 6 | 0 | 0.0 | 0.0 | 0.00 | 0.00 | 0.00 | 77 | 1016.3 |
| 20260508034057 | 6 | 0 | 0.0 | 0.0 | 0.00 | 0.00 | 0.00 | 77 | 1016.2 |
| 20260508033557 | 6 | 0 | 0.0 | 0.0 | 0.00 | 0.00 | 0.00 | 76 | 1016.2 |
| 20260508033058 | 7 | 0 | 0.0 | 0.0 | 0.00 | 0.00 | 0.00 | 76 | 1016.1 |
| 20260508032557 | 7 | 0 | 0.0 | 0.0 | 0.00 | 0.00 | 0.00 | 75 | 1016.2 |
| 20260508032059 | 7 | 0 | 0.0 | 0.0 | 0.00 | 0.00 | 0.00 | 74 | 1016.1 |
| 20260508031559 | 7 | 0 | 0.0 | 0.0 | 0.00 | 0.00 | 0.00 | 74 | 1016.1 |
| 20260508031101 | 7 | 0 | 0.0 | 1.6 | 0.00 | 0.00 | 0.00 | 73 | 1016.1 |
| 20260508030557 | 7 | 0 | 0.0 | 1.6 | 0.00 | 0.00 | 0.00 | 73 | 1016.1 |
| 20260508030103 | 7 | 0 | 0.0 | 0.0 | 0.00 | 0.00 | 0.00 | 72 | 1016.1 |
| 20260508025557 | 7 | 0 | 0.0 | 0.0 | 0.00 | 0.00 | 0.00 | 72 | 1016.0 |
| 20260508025057 | 7 | 0 | 0.0 | 0.0 | 0.00 | 0.00 | 0.00 | 72 | 1016.0 |
| 20260508024601 | 8 | 0 | 0.0 | 0.0 | 0.00 | 0.00 | 0.00 | 71 | 1016.0 |
| 20260508024100 | 8 | 0 | 0.0 | 1.6 | 0.00 | 0.00 | 0.00 | 70 | 1016.0 |
| 20260508023557 | 8 | 0 | 0.0 | 1.6 | 0.00 | 0.00 | 0.00 | 70 | 1016.0 |
| 20260508023058 | 8 | 0 | 0.0 | 1.6 | 0.00 | 0.00 | 0.00 | 69 | 1015.9 |
| 20260508022559 | 8 | 0 | 0.0 | 0.0 | 0.00 | 0.00 | 0.00 | 68 | 1015.9 |
| 20260508022058 | 8 | 0 | 0.0 | 0.0 | 0.00 | 0.00 | 0.00 | 68 | 1015.8 |
| 20260508021559 | 9 | 0 | 0.0 | 0.0 | 0.00 | 0.00 | 0.00 | 67 | 1015.7 |
| 20260508021056 | 9 | 0 | 0.0 | 0.0 | 0.00 | 0.00 | 0.00 | 67 | 1015.6 |
| 20260508020602 | 9 | 0 | 0.0 | 0.0 | 0.00 | 0.00 | 0.00 | 66 | 1015.7 |
| 20260508020057 | 10 | 0 | 0.0 | 0.0 | 0.00 | 0.00 | 0.00 | 65 | 1015.5 |
| 20260508015558 | 10 | 0 | 0.0 | 0.0 | 0.00 | 0.00 | 0.00 | 66 | 1015.4 |
| 20260508015059 | 10 | 0 | 0.0 | 0.0 | 0.00 | 0.00 | 0.00 | 65 | 1015.3 |
| 20260508014556 | 10 | 0 | 0.0 | 0.0 | 0.00 | 0.00 | 0.00 | 64 | 1015.1 |
| 20260508014057 | 10 | 0 | 0.0 | 0.0 | 0.00 | 0.00 | 0.00 | 65 | 1015.2 |
| 20260508013557 | 11 | 0 | 0.0 | 0.0 | 0.00 | 0.00 | 0.00 | 64 | 1015.1 |
| 20260508013105 | 11 | 0 | 0.0 | 1.6 | 0.00 | 0.00 | 0.00 | 63 | 1015.0 |
| 20260508012557 | 11 | 0 | 0.0 | 1.6 | 0.00 | 0.00 | 0.00 | 62 | 1014.9 |
| 20260508012057 | 11 | 0 | 0.0 | 1.6 | 0.00 | 0.00 | 0.00 | 61 | 1014.8 |
| 20260508011557 | 12 | 0 | 0.0 | 0.0 | 0.00 | 0.00 | 0.00 | 59 | 1014.7 |
| 20260508011057 | 12 | 0 | 0.0 | 0.0 | 0.00 | 0.00 | 0.00 | 56 | 1014.6 |
| 20260508010557 | 12 | 0 | 0.0 | 0.0 | 0.00 | 0.00 | 0.00 | 55 | 1014.5 |
| 20260508010056 | 12 | 0 | 0.0 | 0.0 | 0.00 | 0.00 | 0.00 | 54 | 1014.6 |
| 20260508005556 | 13 | 0 | 0.0 | 0.0 | 0.00 | 0.00 | 0.00 | 51 | 1014.5 |
| 20260508005057 | 13 | 0 | 0.0 | 0.0 | 0.00 | 0.00 | 0.00 | 49 | 1014.6 |
| 20260508004601 | 13 | 0 | 0.0 | 0.0 | 0.00 | 0.00 | 0.00 | 49 | 1014.6 |
| 20260508004057 | 13 | 0 | 0.0 | 1.6 | 0.00 | 0.00 | 0.00 | 47 | 1014.5 |
| 20260508003600 | 13 | 0 | 0.0 | 1.6 | 0.00 | 0.00 | 0.00 | 47 | 1014.4 |
| 20260508003058 | 13 | 0 | 0.0 | 3.2 | 0.00 | 0.00 | 0.00 | 47 | 1014.3 |
| 20260508002557 | 14 | 0 | 0.0 | 4.8 | 0.00 | 0.00 | 0.00 | 46 | 1014.4 |
| 20260508002057 | 14 | 0 | 0.0 | 4.8 | 0.00 | 0.00 | 0.00 | 45 | 1014.3 |
| 20260508001554 | 14 | 0 | 0.0 | 6.4 | 0.00 | 0.00 | 0.00 | 44 | 1014.2 |
| 20260508001056 | 14 | 305 | 0.0 | 14.5 | 0.00 | 0.00 | 0.00 | 43 | 1014.2 |
| 20260508000557 | 15 | 307 | 0.0 | 14.5 | 0.00 | 0.00 | 0.00 | 42 | 1014.2 |
| 20260508000057 | 15 | 241 | 3.2 | 14.5 | 0.00 | 0.00 | 0.00 | 41 | 1014.1 |
| 20260507235556 | 15 | 320 | 0.0 | 6.4 | 0.00 | 0.00 | 0.00 | 41 | 1014.1 |
| 20260507235059 | 15 | 0 | 1.6 | 11.3 | 0.00 | 0.00 | 0.00 | 40 | 1014.2 |
| 20260507234557 | 16 | 0 | 1.6 | 11.3 | 0.00 | 0.00 | 0.00 | 40 | 1013.9 |
| 20260507234056 | 16 | 0 | 1.6 | 9.7 | 0.00 | 0.00 | 0.00 | 40 | 1013.9 |
| 20260507233556 | 16 | 259 | 1.6 | 16.1 | 0.00 | 0.00 | 0.00 | 40 | 1013.8 |
| 20260507233055 | 16 | 346 | 3.2 | 16.1 | 0.00 | 0.00 | 0.00 | 39 | 1013.8 |
| 20260507232600 | 16 | 276 | 1.6 | 9.7 | 0.00 | 0.00 | 0.00 | 39 | 1013.8 |
| 20260507232056 | 16 | 340 | 3.2 | 16.1 | 0.00 | 0.00 | 0.00 | 37 | 1014.0 |
| 20260507231557 | 16 | 242 | 1.6 | 17.7 | 0.00 | 0.00 | 0.00 | 38 | 1013.9 |
| 20260507231057 | 16 | 303 | 4.8 | 17.7 | 0.00 | 0.00 | 0.00 | 36 | 1013.8 |
| 20260507230557 | 16 | 309 | 4.8 | 17.7 | 0.00 | 0.00 | 0.00 | 36 | 1013.8 |
| 20260507230100 | 17 | 331 | 6.4 | 17.7 | 0.00 | 0.00 | 0.00 | 35 | 1013.7 |
| 20260507225556 | 17 | 279 | 6.4 | 17.7 | 0.00 | 0.00 | 0.00 | 36 | 1013.7 |
| 20260507225057 | 17 | 286 | 3.2 | 14.5 | 0.00 | 0.00 | 0.00 | 37 | 1013.7 |
| 20260507224557 | 17 | 286 | 1.6 | 12.9 | 0.00 | 0.00 | 0.00 | 36 | 1013.6 |
| 20260507224056 | 17 | 298 | 3.2 | 12.9 | 0.00 | 0.00 | 0.00 | 36 | 1013.5 |
| 20260507223556 | 17 | 11 | 3.2 | 12.9 | 0.00 | 0.00 | 0.00 | 35 | 1013.5 |
| 20260507223057 | 17 | 263 | 3.2 | 12.9 | 0.00 | 0.00 | 0.00 | 35 | 1013.5 |
| 20260507222556 | 17 | 348 | 4.8 | 12.9 | 0.00 | 0.00 | 0.00 | 33 | 1013.4 |
| 20260507222056 | 17 | 279 | 4.8 | 16.1 | 0.00 | 0.00 | 0.00 | 33 | 1013.4 |
| 20260507221600 | 17 | 258 | 6.4 | 17.7 | 0.00 | 0.00 | 0.00 | 32 | 1013.3 |
| 20260507221057 | 17 | 267 | 6.4 | 17.7 | 0.00 | 0.00 | 0.00 | 33 | 1013.3 |
| 20260507220557 | 17 | 315 | 6.4 | 17.7 | 0.00 | 0.00 | 0.00 | 32 | 1013.4 |
| 20260507220058 | 17 | 256 | 4.8 | 17.7 | 0.00 | 0.00 | 0.00 | 35 | 1013.2 |
| 20260507215558 | 18 | 335 | 6.4 | 17.7 | 0.00 | 0.00 | 0.00 | 35 | 1013.1 |
| 20260507215057 | 17 | 295 | 4.8 | 16.1 | 0.00 | 0.00 | 0.00 | 37 | 1013.2 |
| 20260507214555 | 17 | 277 | 6.4 | 16.1 | 0.00 | 0.00 | 0.00 | 33 | 1013.1 |
| 20260507214056 | 18 | 277 | 6.4 | 14.5 | 0.00 | 0.00 | 0.00 | 35 | 1013.1 |
| 20260507213556 | 17 | 306 | 4.8 | 17.7 | 0.00 | 0.00 | 0.00 | 36 | 1013.1 |
| 20260507213101 | 18 | 35 | 6.4 | 20.9 | 0.00 | 0.00 | 0.00 | 35 | 1013.1 |
| 20260507212557 | 18 | 307 | 6.4 | 20.9 | 0.00 | 0.00 | 0.00 | 35 | 1013.1 |
| 20260507212056 | 18 | 351 | 6.4 | 17.7 | 0.00 | 0.00 | 0.00 | 37 | 1012.8 |
| 20260507211559 | 18 | 61 | 4.8 | 14.5 | 0.00 | 0.00 | 0.00 | 35 | 1012.7 |
| 20260507211056 | 18 | 343 | 4.8 | 17.7 | 0.00 | 0.00 | 0.00 | 35 | 1012.7 |
| 20260507210558 | 18 | 352 | 8.0 | 17.7 | 0.00 | 0.00 | 0.00 | 36 | 1012.7 |
| 20260507210058 | 18 | 291 | 3.2 | 17.7 | 0.00 | 0.00 | 0.00 | 36 | 1012.5 |
| 20260507205557 | 18 | 313 | 4.8 | 20.9 | 0.00 | 0.00 | 0.00 | 37 | 1012.6 |
| 20260507205059 | 18 | 346 | 8.0 | 20.9 | 0.00 | 0.00 | 0.00 | 37 | 1012.5 |
| 20260507204601 | 18 | 349 | 4.8 | 17.7 | 0.00 | 0.00 | 0.00 | 39 | 1012.4 |
| 20260507204056 | 18 | 262 | 1.6 | 14.5 | 0.00 | 0.00 | 0.00 | 40 | 1012.3 |
| 20260507203557 | 17 | 304 | 4.8 | 14.5 | 0.00 | 0.00 | 0.00 | 40 | 1012.4 |
| 20260507203057 | 18 | 324 | 6.4 | 17.7 | 0.00 | 0.00 | 0.00 | 38 | 1012.5 |
| 20260507202556 | 18 | 311 | 6.4 | 19.3 | 0.00 | 0.00 | 0.00 | 38 | 1012.3 |
| 20260507202057 | 18 | 292 | 6.4 | 19.3 | 0.00 | 0.00 | 0.00 | 39 | 1012.4 |
| 20260507201602 | 18 | 15 | 4.8 | 14.5 | 0.00 | 0.00 | 0.00 | 40 | 1012.4 |
| 20260507201056 | 18 | 313 | 4.8 | 14.5 | 0.00 | 0.00 | 0.00 | 42 | 1012.5 |
| 20260507200556 | 17 | 5 | 3.2 | 12.9 | 0.00 | 0.00 | 0.00 | 41 | 1012.6 |
| 20260507200057 | 17 | 355 | 4.8 | 11.3 | 0.00 | 0.00 | 0.00 | 40 | 1012.4 |
| 20260507195559 | 17 | 5 | 1.6 | 11.3 | 0.00 | 0.00 | 0.00 | 42 | 1012.5 |
| 20260507195056 | 17 | 347 | 4.8 | 12.9 | 0.00 | 0.00 | 0.00 | 40 | 1012.7 |
| 20260507194600 | 17 | 286 | 4.8 | 16.1 | 0.00 | 0.00 | 0.00 | 40 | 1012.7 |
| 20260507194058 | 18 | 294 | 4.8 | 19.3 | 0.00 | 0.00 | 0.00 | 40 | 1012.7 |
| 20260507193600 | 18 | 9 | 6.4 | 19.3 | 0.00 | 0.00 | 0.00 | 42 | 1012.7 |
| 20260507193058 | 17 | 360 | 8.0 | 19.3 | 0.00 | 0.00 | 0.00 | 42 | 1012.7 |
| 20260507192557 | 17 | 266 | 4.8 | 17.7 | 0.00 | 0.00 | 0.00 | 44 | 1012.8 |
| 20260507192056 | 17 | 269 | 4.8 | 20.9 | 0.00 | 0.00 | 0.00 | 43 | 1012.8 |
| 20260507191614 | 17 | 287 | 4.8 | 20.9 | 0.00 | 0.00 | 0.00 | 42 | 1012.9 |
| 20260507191055 | 17 | 5 | 6.4 | 22.5 | 0.00 | 0.00 | 0.00 | 46 | 1013.1 |
| 20260507190556 | 17 | 290 | 9.7 | 22.5 | 0.00 | 0.00 | 0.00 | 40 | 1013.2 |
| 20260507190059 | 17 | 254 | 4.8 | 14.5 | 0.00 | 0.00 | 0.00 | 44 | 1013.2 |
| 20260507185553 | 17 | 268 | 6.4 | 12.9 | 0.00 | 0.00 | 0.00 | 40 | 1013.4 |
| 20260507185053 | 17 | 310 | 3.2 | 16.1 | 0.00 | 0.00 | 0.00 | 40 | 1013.2 |
| 20260507184603 | 17 | 0 | 6.4 | 16.1 | 0.00 | 0.00 | 0.00 | 43 | 1013.2 |
| 20260507184056 | 17 | 285 | 3.2 | 14.5 | 0.00 | 0.00 | 0.00 | 45 | 1013.2 |
| 20260507183556 | 17 | 271 | 3.2 | 16.1 | 0.00 | 0.00 | 0.00 | 46 | 1013.3 |
| 20260507183103 | 17 | 265 | 6.4 | 16.1 | 0.00 | 0.00 | 0.00 | 41 | 1013.4 |
| 20260507182558 | 17 | 342 | 9.7 | 16.1 | 0.00 | 0.00 | 0.00 | 42 | 1013.3 |
| 20260507182056 | 17 | 261 | 3.2 | 14.5 | 0.00 | 0.00 | 0.00 | 44 | 1013.3 |
| 20260507181556 | 17 | 284 | 3.2 | 14.5 | 0.00 | 0.00 | 0.00 | 45 | 1013.3 |
| 20260507181056 | 17 | 293 | 6.4 | 20.9 | 0.00 | 0.00 | 0.00 | 43 | 1013.3 |
| 20260507180558 | 17 | 333 | 4.8 | 20.9 | 0.00 | 0.00 | 0.00 | 44 | 1013.3 |
| 20260507180101 | 17 | 23 | 6.4 | 16.1 | 0.00 | 0.00 | 0.00 | 44 | 1013.4 |
| 20260507175556 | 17 | 258 | 4.8 | 14.5 | 0.00 | 0.00 | 0.00 | 48 | 1013.3 |
| 20260507175056 | 16 | 265 | 4.8 | 17.7 | 0.00 | 0.00 | 0.00 | 44 | 1013.5 |
| 20260507174558 | 17 | 277 | 4.8 | 17.7 | 0.00 | 0.00 | 0.00 | 45 | 1013.6 |
| 20260507174055 | 17 | 269 | 8.0 | 17.7 | 0.00 | 0.00 | 0.00 | 48 | 1013.5 |
| 20260507173556 | 17 | 271 | 4.8 | 16.1 | 0.00 | 0.00 | 0.00 | 47 | 1013.6 |
| 20260507173058 | 16 | 242 | 4.8 | 14.5 | 0.00 | 0.00 | 0.00 | 48 | 1013.5 |
| 20260507172557 | 16 | 308 | 4.8 | 16.1 | 0.00 | 0.00 | 0.00 | 44 | 1013.7 |
| 20260507172057 | 16 | 243 | 3.2 | 16.1 | 0.00 | 0.00 | 0.00 | 51 | 1013.7 |
| 20260507171559 | 16 | 273 | 4.8 | 12.9 | 0.00 | 0.00 | 0.00 | 50 | 1013.9 |
| 20260507171056 | 16 | 344 | 1.6 | 19.3 | 0.00 | 0.00 | 0.00 | 47 | 1013.8 |
| 20260507170556 | 15 | 355 | 4.8 | 19.3 | 0.00 | 0.00 | 0.00 | 49 | 1014.0 |
| 20260507170056 | 15 | 350 | 4.8 | 14.5 | 0.00 | 0.00 | 0.00 | 49 | 1014.0 |
| 20260507165555 | 16 | 333 | 4.8 | 17.7 | 0.00 | 0.00 | 0.00 | 47 | 1014.1 |
| 20260507165057 | 16 | 264 | 4.8 | 17.7 | 0.00 | 0.00 | 0.00 | 50 | 1014.1 |
| 20260507164633 | 16 | 255 | 4.8 | 14.5 | 0.00 | 0.00 | 0.00 | 49 | 1014.3 |
| 20260507164056 | 16 | 323 | 4.8 | 14.5 | 0.00 | 0.00 | 0.00 | 48 | 1014.1 |
| 20260507163557 | 15 | 258 | 4.8 | 14.5 | 0.00 | 0.00 | 0.00 | 52 | 1014.3 |
| 20260507163100 | 15 | 251 | 1.6 | 14.5 | 0.00 | 0.00 | 0.00 | 51 | 1014.4 |
| 20260507162556 | 16 | 11 | 3.2 | 14.5 | 0.00 | 0.00 | 0.00 | 49 | 1014.4 |
| 20260507162056 | 16 | 349 | 3.2 | 17.7 | 0.00 | 0.00 | 0.00 | 49 | 1014.4 |
| 20260507161606 | 16 | 279 | 4.8 | 17.7 | 0.00 | 0.00 | 0.00 | 50 | 1014.3 |
| 20260507161057 | 16 | 262 | 4.8 | 12.9 | 0.00 | 0.00 | 0.00 | 49 | 1014.4 |
| 20260507160556 | 15 | 0 | 1.6 | 9.7 | 0.00 | 0.00 | 0.00 | 48 | 1014.5 |
| 20260507160057 | 15 | 0 | 1.6 | 9.7 | 0.00 | 0.00 | 0.00 | 49 | 1014.5 |
| 20260507155557 | 15 | 290 | 1.6 | 11.3 | 0.00 | 0.00 | 0.00 | 51 | 1014.6 |
| 20260507155057 | 15 | 346 | 4.8 | 11.3 | 0.00 | 0.00 | 0.00 | 54 | 1014.6 |
| 20260507154558 | 15 | 0 | 3.2 | 9.7 | 0.00 | 0.00 | 0.00 | 52 | 1014.6 |
| 20260507154057 | 15 | 335 | 1.6 | 19.3 | 0.00 | 0.00 | 0.00 | 52 | 1014.7 |
| 20260507153557 | 15 | 290 | 3.2 | 19.3 | 0.00 | 0.00 | 0.00 | 52 | 1014.7 |
| 20260507153059 | 15 | 245 | 4.8 | 19.3 | 0.00 | 0.00 | 0.00 | 54 | 1014.6 |
| 20260507152557 | 14 | 313 | 3.2 | 12.9 | 0.00 | 0.00 | 0.00 | 56 | 1014.7 |
| 20260507152100 | 14 | 352 | 4.8 | 12.9 | 0.00 | 0.00 | 0.00 | 53 | 1014.6 |
| 20260507151556 | 14 | 329 | 0.0 | 9.7 | 0.00 | 0.00 | 0.00 | 54 | 1014.7 |
| 20260507151057 | 14 | 216 | 3.2 | 11.3 | 0.00 | 0.00 | 0.00 | 51 | 1014.6 |
| 20260507150557 | 15 | 279 | 1.6 | 11.3 | 0.00 | 0.00 | 0.00 | 52 | 1014.8 |
| 20260507150059 | 15 | 351 | 4.8 | 11.3 | 0.00 | 0.00 | 0.00 | 54 | 1014.7 |
| 20260507145559 | 15 | 347 | 1.6 | 11.3 | 0.00 | 0.00 | 0.00 | 54 | 1014.8 |
| 20260507145057 | 15 | 257 | 0.0 | 11.3 | 0.00 | 0.00 | 0.00 | 55 | 1015.0 |
| 20260507144600 | 15 | 282 | 3.2 | 11.3 | 0.00 | 0.00 | 0.00 | 54 | 1015.0 |
| 20260507144058 | 15 | 17 | 3.2 | 12.9 | 0.00 | 0.00 | 0.00 | 53 | 1014.9 |
| 20260507143557 | 15 | 9 | 3.2 | 12.9 | 0.00 | 0.00 | 0.00 | 56 | 1015.0 |
| 20260507143109 | 15 | 316 | 3.2 | 12.9 | 0.00 | 0.00 | 0.00 | 54 | 1015.1 |
| 20260507142557 | 15 | 66 | 3.2 | 6.4 | 0.00 | 0.00 | 0.00 | 54 | 1014.9 |
| 20260507142057 | 14 | 41 | 1.6 | 8.0 | 0.00 | 0.00 | 0.00 | 55 | 1015.0 |
| 20260507141621 | 14 | 334 | 3.2 | 8.0 | 0.00 | 0.00 | 0.00 | 56 | 1015.1 |
| 20260507141057 | 14 | 347 | 3.2 | 8.0 | 0.00 | 0.00 | 0.00 | 56 | 1015.1 |
| 20260507140559 | 14 | 67 | 1.6 | 8.0 | 0.00 | 0.00 | 0.00 | 57 | 1015.2 |
| 20260507140059 | 13 | 5 | 0.0 | 9.7 | 0.00 | 0.00 | 0.00 | 60 | 1015.4 |
| 20260507135557 | 13 | 355 | 3.2 | 9.7 | 0.00 | 0.08 | 0.00 | 62 | 1015.3 |
| 20260507135057 | 13 | 348 | 1.6 | 6.4 | 0.00 | 0.08 | 0.00 | 60 | 1015.5 |
| 20260507134600 | 13 | 288 | 1.6 | 6.4 | 0.00 | 0.08 | 0.00 | 62 | 1015.5 |
| 20260507134057 | 13 | 348 | 1.6 | 6.4 | 0.00 | 0.08 | 0.00 | 62 | 1015.5 |
| 20260507133558 | 13 | 349 | 1.6 | 8.0 | 0.00 | 0.08 | 0.00 | 65 | 1015.5 |
| 20260507133109 | 12 | 0 | 1.6 | 8.0 | 0.00 | 0.08 | 0.00 | 65 | 1015.6 |
| 20260507132558 | 12 | 0 | 3.2 | 8.0 | 0.00 | 0.08 | 0.00 | 66 | 1015.7 |
| 20260507132057 | 12 | 0 | 1.6 | 9.7 | 0.00 | 0.08 | 0.00 | 70 | 1015.7 |
| 20260507131613 | 12 | 285 | 3.2 | 9.7 | 0.00 | 0.08 | 0.00 | 70 | 1015.7 |
| 20260507131057 | 12 | 55 | 1.6 | 4.8 | 0.00 | 0.08 | 0.00 | 75 | 1015.8 |
| 20260507130557 | 12 | 97 | 1.6 | 4.8 | 0.00 | 0.08 | 0.00 | 75 | 1015.8 |
| 20260507130058 | 11 | 49 | 1.6 | 4.8 | 0.00 | 0.08 | 0.00 | 76 | 1015.8 |
| 20260507125557 | 11 | 35 | 0.0 | 3.2 | 0.00 | 0.08 | 0.00 | 78 | 1015.7 |
| 20260507125058 | 11 | 0 | 0.0 | 3.2 | 0.00 | 0.08 | 0.00 | 79 | 1015.7 |
| 20260507124556 | 11 | 0 | 1.6 | 3.2 | 0.00 | 0.08 | 0.00 | 80 | 1015.6 |
| 20260507124058 | 10 | 0 | 0.0 | 3.2 | 0.00 | 0.08 | 0.00 | 82 | 1015.7 |
| 20260507123558 | 10 | 10 | 0.0 | 1.6 | 0.00 | 0.08 | 0.00 | 84 | 1015.8 |
| 20260507123112 | 10 | 0 | 0.0 | 1.6 | 0.00 | 0.08 | 0.00 | 85 | 1015.8 |
| 20260507122559 | 10 | 0 | 0.0 | 1.6 | 0.00 | 0.08 | 0.00 | 86 | 1015.8 |
| 20260507122059 | 9 | 0 | 0.0 | 0.0 | 0.00 | 0.08 | 0.00 | 87 | 1015.8 |
| 20260507121555 | 9 | 0 | 0.0 | 0.0 | 0.00 | 0.08 | 0.00 | 87 | 1015.8 |
| 20260507121058 | 8 | 0 | 0.0 | 0.0 | 0.00 | 0.08 | 0.00 | 88 | 1015.7 |
| 20260507120557 | 8 | 0 | 0.0 | 0.0 | 0.00 | 0.08 | 0.00 | 89 | 1015.8 |
| 20260507120055 | 8 | 0 | 0.0 | 0.0 | 0.00 | 0.08 | 0.00 | 90 | 1015.7 |
| 20260507115558 | 8 | 0 | 0.0 | 0.0 | 0.00 | 0.13 | 0.00 | 90 | 1015.7 |
| 20260507115057 | 7 | 0 | 0.0 | 0.0 | 0.00 | 0.13 | 0.00 | 91 | 1015.7 |
| 20260507114559 | 7 | 0 | 0.0 | 0.0 | 0.00 | 0.13 | 0.00 | 91 | 1015.6 |
| 20260507114057 | 7 | 0 | 0.0 | 0.0 | 0.00 | 0.13 | 0.00 | 91 | 1015.7 |
| 20260507113558 | 7 | 0 | 0.0 | 0.0 | 0.00 | 0.13 | 0.00 | 91 | 1015.7 |
| 20260507113055 | 6 | 0 | 0.0 | 0.0 | 0.00 | 0.13 | 0.00 | 91 | 1015.6 |
| 20260507112557 | 6 | 0 | 0.0 | 1.6 | 0.00 | 0.13 | 0.00 | 91 | 1015.6 |
| 20260507112058 | 6 | 0 | 0.0 | 1.6 | 0.00 | 0.13 | 0.00 | 91 | 1015.5 |